Time,TemperatureF,DewpointF,PressureIn,WindDirection,WindDirectionDegrees,WindSpeedMPH,WindSpeedGustMPH,Humidity,HourlyPrecipIn,Conditions,Clouds,dailyrainin,SoftwareType,DateUTC
2013-07-06 01:00:00,72.0,61.0,-100.00,South,184,1.0,-999.0,68,0.00,,,0.00,,2013-07-06 06:00:00,
2013-07-06 01:43:00,72.0,61.0,-100.00,South,184,1.0,-999.0,68,0.00,,,0.00,,2013-07-06 06:43:00,
2013-07-06 01:53:00,72.0,61.0,-100.00,South,184,1.0,-999.0,68,0.00,,,0.00,,2013-07-06 06:53:00,
2013-07-06 02:00:00,73.0,62.0,-100.00,ENE,75,1.0,-999.0,69,0.00,,,0.00,,2013-07-06 07:00:00,
2013-07-06 02:44:00,73.0,62.0,-100.00,ENE,75,1.0,-999.0,69,0.00,,,0.00,,2013-07-06 07:44:00,
2013-07-06 02:52:00,73.0,62.0,-100.00,ENE,75,1.0,-999.0,69,0.00,,,0.00,,2013-07-06 07:52:00,
2013-07-06 03:00:00,73.0,64.0,-100.00,NE,35,1.0,-999.0,75,0.00,,,0.00,,2013-07-06 08:00:00,
2013-07-06 03:43:00,73.0,64.0,-100.00,NE,35,1.0,-999.0,75,0.00,,,0.00,,2013-07-06 08:43:00,
2013-07-06 03:54:00,73.0,64.0,-100.00,NE,35,1.0,-999.0,75,0.00,,,0.00,,2013-07-06 08:54:00,
2013-07-06 04:00:00,68.0,60.0,-100.00,South,185,3.0,-999.0,76,0.00,,,0.00,,2013-07-06 09:00:00,
2013-07-06 04:43:00,68.0,60.0,-100.00,South,185,3.0,-999.0,76,0.00,,,0.00,,2013-07-06 09:43:00,
2013-07-06 04:53:00,68.0,60.0,-100.00,South,185,3.0,-999.0,76,0.00,,,0.00,,2013-07-06 09:53:00,
2013-07-06 05:00:00,65.0,60.0,-100.00,South,174,3.0,-999.0,84,0.00,,,0.00,,2013-07-06 10:00:00,
2013-07-06 05:43:00,65.0,60.0,-100.00,South,174,3.0,-999.0,84,0.00,,,0.00,,2013-07-06 10:43:00,
2013-07-06 05:53:00,65.0,60.0,-100.00,South,174,3.0,-999.0,84,0.00,,,0.00,,2013-07-06 10:53:00,
2013-07-06 06:00:00,67.0,61.0,-100.00,WSW,250,0.0,-999.0,82,0.00,,,0.00,,2013-07-06 11:00:00,
2013-07-06 06:43:00,67.0,61.0,-100.00,WSW,250,0.0,-999.0,82,0.00,,,0.00,,2013-07-06 11:43:00,
2013-07-06 06:53:00,67.0,61.0,-100.00,WSW,250,0.0,-999.0,82,0.00,,,0.00,,2013-07-06 11:53:00,
2013-07-06 07:00:00,68.0,61.0,-100.00,SE,125,0.0,-999.0,77,0.00,,,0.00,,2013-07-06 12:00:00,
2013-07-06 07:43:00,68.0,61.0,-100.00,SE,125,0.0,-999.0,77,0.00,,,0.00,,2013-07-06 12:43:00,
2013-07-06 07:52:00,68.0,61.0,-100.00,SE,125,0.0,-999.0,77,0.00,,,0.00,,2013-07-06 12:52:00,
2013-07-06 10:00:00,79.0,68.0,-100.00,SSE,159,6.0,-999.0,70,0.00,,,0.00,,2013-07-06 15:00:00,
2013-07-06 10:43:00,79.0,68.0,-100.00,SSE,159,6.0,-999.0,70,0.00,,,0.00,,2013-07-06 15:43:00,
2013-07-06 10:53:00,79.0,68.0,-100.00,SSE,159,6.0,-999.0,70,0.00,,,0.00,,2013-07-06 15:53:00,
2013-07-06 11:00:00,82.0,69.0,-100.00,SSE,162,5.0,-999.0,63,0.00,,,0.00,,2013-07-06 16:00:00,
2013-07-06 12:00:00,84.0,68.0,-100.00,SSE,164,9.0,-999.0,58,0.00,,,0.00,,2013-07-06 17:00:00,
2013-07-06 13:00:00,87.0,68.0,-100.00,SE,142,7.0,-999.0,53,0.00,,,0.00,,2013-07-06 18:00:00,
2013-07-06 14:58:00,88.0,65.0,-100.00,SSE,162,9.0,-999.0,47,0.00,,,0.00,,2013-07-06 19:58:00,
2013-07-06 16:00:00,90.0,62.0,-100.00,SSE,154,6.0,-999.0,39,0.00,,,0.00,,2013-07-06 21:00:00,
2013-07-06 17:00:00,91.0,62.0,-100.00,SE,133,6.0,-999.0,38,0.00,,,0.00,,2013-07-06 22:00:00,
2013-07-06 20:41:00,87.0,63.0,-100.00,ESE,105,4.0,-999.0,46,-99.99,,,0.00,,2013-07-07 01:41:00,
2013-07-06 20:58:00,87.0,63.0,-100.00,ESE,105,4.0,-999.0,46,-99.99,,,0.00,,2013-07-07 01:58:00,
2013-07-06 21:00:00,84.0,65.0,-100.00,East,83,3.0,-999.0,53,0.00,,,0.00,,2013-07-07 02:00:00,
2013-07-06 21:53:00,84.0,65.0,-100.00,East,83,3.0,-999.0,53,0.00,,,0.00,,2013-07-07 02:53:00,
2013-07-06 22:00:00,78.0,65.0,-100.00,SSE,154,3.0,-999.0,64,0.00,,,0.00,,2013-07-07 03:00:00,
2013-07-06 23:00:00,76.0,65.0,-100.00,SE,141,3.0,-999.0,68,0.00,,,0.00,,2013-07-07 04:00:00,
2013-07-06 23:41:00,76.0,65.0,-100.00,SE,141,3.0,-999.0,68,0.00,,,0.00,,2013-07-07 04:41:00,
2013-07-06 23:51:00,76.0,65.0,-100.00,SE,141,3.0,-999.0,68,0.00,,,0.00,,2013-07-07 04:51:00,